This is the latest recevied weather packets stored in our database for station/object WW4HG. If no packets are shown the sender has not sent any weather packets the latest 1 day(s).
| Time | Temp. | Humidity | Pressure | Rain* | Wind** | Luminosity | Snow |
|---|---|---|---|---|---|---|---|
| 1778014570 | 22.78° C | 40% | 1017 hPa | 0 mm | 0 m/s | 34 W/m² | - |
| 1778014267 | 22.78° C | 40% | 1017.3 hPa | 0 mm | 2.24 m/s, 95° | 37 W/m² | - |
| 1778013964 | 22.78° C | 40% | 1017 hPa | 0 mm | 0.45 m/s, 183° | 36 W/m² | - |
| 1778013662 | 22.78° C | 39% | 1017.3 hPa | 0 mm | 1.34 m/s, 69° | 41 W/m² | - |
| 1778013358 | 22.78° C | 39% | 1017 hPa | 0 mm | 0 m/s | 41 W/m² | - |
| 1778013055 | 22.78° C | 39% | 1017 hPa | 0 mm | 1.34 m/s, 141° | 49 W/m² | - |
| 1778012751 | 22.78° C | 39% | 1017 hPa | 0 mm | 0 m/s | 58 W/m² | - |
| 1778012447 | 22.78° C | 40% | 1017.3 hPa | 0 mm | 2.68 m/s, 109° | 74 W/m² | - |
| 1778012144 | 22.78° C | 39% | 1017.3 hPa | 0 mm | 1.34 m/s, 83° | 91 W/m² | - |
| 1778011842 | 22.78° C | 39% | 1017.3 hPa | 0 mm | 0.89 m/s, 141° | 97 W/m² | - |
| 1778011539 | 23.33° C | 39% | 1017.3 hPa | 0 mm | 0.45 m/s, 149° | 88 W/m² | - |
| 1778011236 | 23.33° C | 39% | 1017.3 hPa | 0 mm | 3.13 m/s, 157° | 113 W/m² | - |
| 1778010932 | 23.33° C | 39% | 1017.3 hPa | 0 mm | 1.79 m/s, 136° | 54 W/m² | - |
| 1778010630 | 23.33° C | 38% | 1017.7 hPa | 0 mm | 1.34 m/s, 109° | 45 W/m² | - |
| 1778010327 | 23.33° C | 38% | 1018 hPa | 0 mm | 3.13 m/s, 90° | 44 W/m² | - |
| 1778010022 | 23.33° C | 38% | 1018 hPa | 0 mm | 2.24 m/s, 189° | 43 W/m² | - |
| 1778009720 | 23.89° C | 38% | 1018 hPa | 0 mm | 1.79 m/s, 151° | 41 W/m² | - |
| 1778009417 | 23.89° C | 38% | 1018 hPa | 0 mm | 1.79 m/s, 151° | 43 W/m² | - |
| 1778009115 | 23.89° C | 38% | 1018.4 hPa | 0 mm | 0 m/s | 43 W/m² | - |
| 1778008813 | 23.33° C | 38% | 1018 hPa | 0 mm | 1.34 m/s, 120° | 44 W/m² | - |
| 1778008510 | 23.33° C | 39% | 1018.4 hPa | 0 mm | 0 m/s | 92 W/m² | - |
| 1778008208 | 23.89° C | 39% | 1018.4 hPa | 0 mm | 1.79 m/s, 154° | 62 W/m² | - |
| 1778007903 | 23.33° C | 39% | 1018.4 hPa | 0 mm | 0 m/s | 53 W/m² | - |
| 1778007599 | 23.33° C | 39% | 1018.4 hPa | 0 mm | 0 m/s | 46 W/m² | - |
| 1778007296 | 23.89° C | 39% | 1018.4 hPa | 0 mm | 1.79 m/s, 48° | 165 W/m² | - |
* Rain latest hour (hover to see other rain measurements)
** Current wind speed in m/s (hover to see current wind gust speed)